DateTimeUTC,F1_A11,F1_S11,BsB_S11,BsG_S11,BsR_S11,BbsB_S11,BbsG_S11,BbsR_S11,BaB_A11,BaG_A11,BaR_A11,Tu_S11,T_S11,Uu_S11,U_S11,P_S11,T1_A11
2021-11-16T18:00:00Z,00000200,21000000,,,,,,,0000.35,0000.42,0000.04,18.3,25.5,,00.0,0639.0,30.8
2021-11-16T18:01:00Z,00000200,21000000,,,,,,,0000.00,-000.19,0000.17,18.4,25.5,,00.0,0639.0,30.8
2021-11-16T18:02:00Z,00000200,21000000,,,,,,,0000.38,0000.11,-000.04,18.4,25.5,,00.0,0639.0,30.8
2021-11-16T18:03:00Z,00000200,61000000,,,,,,,-000.09,0000.15,0000.30,18.4,25.5,,00.0,0639.0,30.8
2021-11-16T18:04:00Z,00000200,41000000,0001.20,0000.36,-000.02,0000.24,0000.07,0000.07,0000.35,0000.38,0000.01,18.4,25.3,,00.0,0639.9,30.8
2021-11-16T18:05:00Z,00000200,01000000,0000.44,0000.41,-000.10,0000.22,0000.27,0000.02,0000.26,-000.04,0000.26,18.4,25.2,,00.0,0639.9,30.8
2021-11-16T18:06:00Z,00000200,01000000,0001.10,0000.25,-000.05,-000.38,0000.40,-000.19,0000.33,0000.58,0000.12,18.3,25.2,,00.0,0639.9,30.8
2021-11-16T18:07:00Z,00000200,01000000,0000.24,0000.45,0000.19,-000.28,0000.13,0000.02,0000.38,0000.20,0000.42,18.3,25.1,,00.0,0639.9,30.7
2021-11-16T18:08:00Z,00000200,01000000,-000.30,0000.46,0000.01,-000.45,-000.06,-000.02,-000.13,0000.05,-000.02,18.3,25.1,,00.0,0639.9,30.8
2021-11-16T18:09:00Z,00000200,01000000,0000.55,0000.35,0000.28,-000.58,-000.03,0000.10,0000.31,0000.16,0000.32,18.3,25.1,,00.0,0639.9,30.8
2021-11-16T18:10:00Z,00000200,01000000,0001.03,0000.34,0000.06,-000.19,0000.13,-000.26,0000.63,0000.53,0000.18,18.4,25.1,,00.0,0639.9,30.8
2021-11-16T18:11:00Z,00000200,01000000,0000.72,0000.34,0000.29,0000.42,0000.02,0000.19,0000.36,0000.46,0000.33,18.4,25.1,,00.0,0639.9,30.8
2021-11-16T18:12:00Z,00000200,01000000,0000.38,0000.30,0000.10,0000.30,0000.01,0000.01,0000.32,0000.43,0000.22,18.4,25.1,,00.0,0639.9,30.8
2021-11-16T18:13:00Z,00000200,01000000,-000.02,0000.25,0000.72,0000.54,-000.03,0000.14,0000.37,0000.19,0000.06,18.4,25.1,,00.0,0639.9,30.8
2021-11-16T18:14:00Z,00000200,01000000,0000.97,-000.01,0000.28,-000.22,0000.02,-000.02,0000.06,-000.17,0000.25,18.5,25.1,,00.0,0639.9,30.8
2021-11-16T18:15:00Z,00000200,01000000,0001.37,0000.64,-000.02,0000.40,0000.08,0000.07,0000.25,0000.31,0000.04,18.5,25.1,,00.0,0640.0,30.8
2021-11-16T18:16:00Z,00000200,01000000,0000.72,0000.17,-000.05,-000.19,-000.09,0000.35,0000.26,0000.43,0000.25,18.5,25.1,,00.0,0640.0,30.8
2021-11-16T18:17:00Z,00000200,01000000,0000.22,-000.04,0000.54,-000.45,-000.11,0000.18,0000.03,-000.19,-000.06,18.6,25.2,,00.0,0640.0,30.8
2021-11-16T18:18:00Z,00000200,01000000,0000.47,0000.22,0000.09,-000.29,-000.28,-000.16,0000.49,0000.43,-000.12,18.6,25.2,,00.0,0640.0,30.8
2021-11-16T18:19:00Z,00000200,01000000,0000.58,0000.11,-000.25,-000.42,0000.19,0000.06,0000.02,0000.15,0000.61,18.6,25.2,,00.0,0640.0,30.8
2021-11-16T18:20:00Z,00000200,01000000,0000.84,0000.24,0000.01,0000.49,0000.14,0000.15,-000.08,-000.12,-000.06,18.6,25.2,,00.0,0640.1,30.8
2021-11-16T18:21:00Z,00000200,01000000,0000.75,0000.00,0000.08,0001.20,0000.06,-000.09,0000.50,0000.40,-000.14,18.6,25.2,,00.0,0640.0,30.8
2021-11-16T18:22:00Z,00000200,01000000,0000.13,0000.40,0000.11,-000.25,0000.02,-000.14,0000.07,0000.13,0000.51,18.6,25.2,,00.0,0640.1,30.8
2021-11-16T18:23:00Z,00000200,01000000,0000.12,-000.04,0000.05,0000.14,-000.05,-000.06,0000.43,0000.17,0000.15,18.7,25.2,,00.0,0640.1,30.8
2021-11-16T18:24:00Z,00000200,01000000,0000.98,0000.39,0000.20,-000.30,0000.58,-000.00,-000.20,-000.10,0000.05,18.7,25.2,,00.0,0640.1,30.8
2021-11-16T18:25:00Z,00000200,01000000,0000.19,0000.55,0000.02,-000.69,-000.07,-000.40,0001.00,0000.48,0000.16,18.7,25.2,,00.0,0640.1,30.8
2021-11-16T18:26:00Z,00000200,01000000,0000.13,0000.29,0000.36,0000.27,0000.27,0000.14,-000.26,0000.28,0000.28,18.8,25.2,,00.0,0640.1,30.8
2021-11-16T18:27:00Z,00000200,01000000,-000.12,0000.19,0000.13,-000.36,0000.18,0000.04,0000.60,0000.27,0000.26,18.8,25.2,,00.0,0640.1,30.8
2021-11-16T18:28:00Z,00000200,01000000,0000.04,0000.12,0000.30,0000.38,0000.30,-000.07,0000.00,0000.41,0000.04,18.8,25.2,,00.0,0640.1,30.8
2021-11-16T18:29:00Z,00000200,01000000,0000.43,0000.06,0000.25,-000.30,0000.14,0000.31,0000.24,0000.17,0000.02,18.8,25.3,,00.0,0640.1,30.8
2021-11-16T18:30:00Z,00000200,01000000,-000.06,0000.53,0000.12,-001.08,0000.18,-000.03,0000.50,0000.21,0000.48,18.8,25.3,,00.0,0640.1,30.8
2021-11-16T18:31:00Z,00000200,01000000,0000.12,0000.40,0000.35,-000.48,0000.14,0000.07,0000.06,0000.34,-000.09,18.8,25.3,,00.0,0640.1,30.8
2021-11-16T18:32:00Z,00000200,01000000,-000.17,0000.20,0000.38,0000.01,0000.05,0000.07,0000.24,-000.01,0000.06,18.8,25.3,,00.0,0640.1,30.8
2021-11-16T18:33:00Z,00000200,01000000,0000.85,0000.63,0000.11,-000.06,0000.15,0000.02,0000.22,0000.48,0000.29,18.8,25.3,,00.0,0640.1,30.8
2021-11-16T18:34:00Z,00000200,01000000,0000.31,0000.27,0000.08,0000.13,0000.11,0000.07,-000.07,0000.08,0000.14,18.9,25.3,,00.0,0640.1,30.8
2021-11-16T18:35:00Z,00000200,01000000,0001.38,0000.06,0000.17,-000.29,-000.09,-000.15,0000.21,-000.27,0000.04,18.9,25.3,,00.0,0640.1,30.8
2021-11-16T18:36:00Z,00000200,01010000,0001.75,0000.10,0000.34,-000.48,-000.37,0000.41,0000.52,0000.44,0000.11,18.9,25.3,,00.0,0640.1,30.9
2021-11-16T18:37:00Z,00000200,01000000,0000.91,0000.26,0000.38,-000.06,-000.01,0000.19,-000.00,0000.25,0000.40,18.9,25.3,,00.0,0640.1,30.8
2021-11-16T18:38:00Z,00000200,01000000,0001.11,0000.43,-000.11,0000.26,0000.06,0000.03,0000.38,0000.06,0000.18,18.9,25.3,,00.0,0640.0,30.8
2021-11-16T18:39:00Z,00000200,01000000,0000.27,0000.38,-000.10,0000.30,0000.07,-000.16,0000.13,0000.70,0000.28,18.9,25.4,,00.0,0640.0,30.8
2021-11-16T18:40:00Z,00000200,01000000,0000.58,0000.09,0000.03,0000.48,-000.03,0000.08,0000.40,0000.08,-000.10,19.0,25.4,,00.0,0640.1,30.8
2021-11-16T18:41:00Z,00000200,01000000,0000.73,0000.15,0000.23,-000.28,-000.36,-000.13,0000.24,0000.05,0000.24,19.0,25.4,,00.0,0640.1,30.9
2021-11-16T18:42:00Z,00000200,01000000,0000.43,0000.37,0000.14,0000.14,-000.14,-000.27,0000.19,-000.01,0000.03,19.0,25.4,,00.0,0640.1,30.9
2021-11-16T18:43:00Z,00000200,01000000,0000.71,0000.25,0000.31,-000.25,0000.16,-000.18,0000.12,0000.31,0000.07,19.0,25.4,,00.0,0640.1,30.9
2021-11-16T18:44:00Z,00000200,01000000,0000.23,0000.23,0000.13,-000.09,0000.03,0000.34,0000.00,0000.09,0000.30,19.1,25.4,,00.0,0640.1,30.9
2021-11-16T18:45:00Z,00000200,01000000,-000.03,0000.14,0000.19,-000.28,0000.39,-000.06,0000.29,-000.02,0000.03,19.1,25.4,,00.0,0640.2,30.9
2021-11-16T18:46:00Z,00000200,01000000,0000.59,0000.02,0000.41,-000.00,0000.04,-000.13,0000.04,0000.66,-000.00,19.1,25.5,,00.0,0640.2,30.9
2021-11-16T18:47:00Z,00000200,01000000,0001.04,0000.22,0000.18,-000.31,-000.19,-000.00,0000.19,-000.39,-000.12,19.1,25.5,,00.0,0640.2,30.9
2021-11-16T18:48:00Z,00000200,01000000,0001.75,0000.40,0000.06,0000.38,0000.31,0000.31,-000.09,0000.05,0000.15,19.1,25.5,,00.0,0640.3,30.9
2021-11-16T18:49:00Z,00000200,01000000,0001.00,0000.42,0000.26,-000.36,-000.12,0000.03,0000.36,0000.12,-000.04,19.1,25.5,,00.0,0640.3,30.9
2021-11-16T18:50:00Z,00000200,01000000,0000.61,0000.10,0000.40,0000.15,0000.05,-000.09,-000.04,0000.10,0000.37,19.1,25.5,,00.0,0640.3,30.9
2021-11-16T18:51:00Z,00000200,01000000,0000.75,0000.41,-000.12,0000.02,-000.49,-000.02,0000.07,0000.20,-000.03,19.1,25.5,,00.0,0640.4,30.9
2021-11-16T18:52:00Z,00000200,01000000,0001.51,0000.20,0000.31,0000.27,0000.12,-000.36,0000.40,0000.28,0000.17,19.1,25.5,,00.0,0640.4,30.8
2021-11-16T18:53:00Z,00000200,01000000,0000.46,0000.28,0000.18,0000.11,-000.15,-000.04,0000.09,-000.33,-000.09,19.1,25.5,,00.0,0640.4,30.9
2021-11-16T18:54:00Z,00000200,01000000,0001.05,0000.18,0000.27,-000.10,-000.16,0000.03,0000.03,0000.41,0000.16,19.2,25.5,,00.0,0640.3,30.9
2021-11-16T18:55:00Z,00000200,01000000,0000.01,-000.18,-000.13,-000.01,0000.19,-000.07,0000.38,0000.36,0000.45,19.2,25.5,,00.0,0640.3,30.9
2021-11-16T18:56:00Z,00000200,01000000,0000.96,0000.27,-000.18,0000.06,-000.07,-000.18,-000.02,-000.05,-000.45,19.2,25.5,,00.0,0640.3,30.9
2021-11-16T18:57:00Z,00000200,41000000,,,,,,,0000.77,0000.95,0001.03,19.2,25.6,,00.0,0640.4,30.9
2021-11-16T18:58:00Z,00000200,61000000,,,,,,,0000.32,0000.17,-000.04,18.9,25.7,,00.0,0639.4,30.9
2021-11-16T18:59:00Z,00000200,21000000,,,,,,,-000.25,-000.38,0000.25,18.9,25.8,,00.0,0639.4,30.9
